Home > Weather > Klagenfurt > Past weeks

Flag for Austria Past Weather in Klagenfurt, Carinthia, Austria — Yesterday and Last 2 Weeks

Now
64 °F

Rain showers. Partly sunny.


Feels Like: 64 °F
Forecast: 61 / 72 °F
Wind: 3 mph from North

Location: Klagenfurt-Flughafen

Current Time: Aug 29, 2016 at 8:04:48 PM

Latest Report: Aug 29, 2016 at 7:20 PM


Visibility: 5 mi

Pressure: 30.15 "Hg

Humidity: 94%

Dew Point: 63 °F

Location of KlagenfurtLocation

Past Weather in Klagenfurt — Graph

°F

Klagenfurt Temperature Yesterday

Maximum temperature yesterday: 84 °F (at 5:20 PM)
Minimum temperature yesterday: 57 °F (at 6:20 AM)
Average temperature yesterday: 70 °F

High & Low Weather Summary for the Past Weeks

 TemperatureHumidityPressure
High84 °F (Aug 28, 5:20 PM)100% (Aug 15, 11:50 PM)30.39 "Hg (Aug 15, 11:50 PM)
Low48 °F (Aug 23, 5:50 AM)40% (Aug 22, 4:20 PM)29.86 "Hg (Aug 17, 1:50 PM)
Average67 °F76%30.12 "Hg
* Reported Aug 14 6:20 PM — Aug 29 6:50 PM, Klagenfurt, Weather by CustomWeather, © 2016

Note: Actual official high and low records may vary slightly from our data, if they occured in-between our weather recording intervals... More about our weather records

Advertising

Klagenfurt Weather History for the Previous 24 Hours

Scroll right to see more
 ConditionsComfort  
Time TempWeatherWind HumidityBarometerVisibility
6:50 PM
Mon, Aug 29
66 °FThunderstorms. Partly sunny.2 mph88%30.15 "Hg4 mi
6:20 PM68 °FThunderstorms. Partly sunny.7 mph83%30.12 "Hg3 mi
5:50 PM72 °FThunderstorms. Partly sunny.8 mph69%30.09 "HgN/A
5:20 PM75 °FThundershowers. Broken clouds.10 mph65%30.04 "HgN/A
4:50 PM77 °FBroken clouds.14 mph51%30.01 "HgN/A
4:20 PM75 °FThundershowers. Scattered clouds.20 mph57%30.01 "HgN/A
3:50 PM77 °FThundershowers. Scattered clouds.21 mph51%30.01 "HgN/A
3:20 PM79 °FScattered clouds.15 mph48%30.01 "HgN/A
2:50 PM82 °FScattered clouds.5 mph48%30.01 "HgN/A
2:20 PM82 °FPassing clouds.3 mph45%30.01 "HgN/A
1:50 PM82 °FPassing clouds.2 mph42%30.01 "HgN/A
1:20 PM82 °FPassing clouds.2 mph48%30.04 "HgN/A
12:50 PM81 °FPassing clouds.3 mph51%30.04 "HgN/A
12:20 PM79 °FPassing clouds.2 mph54%30.04 "HgN/A
11:50 AM79 °FPassing clouds.2 mph58%30.07 "HgN/A
11:20 AM77 °FPassing clouds.3 mph61%30.07 "HgN/A
10:50 AM75 °FPassing clouds.5 mph65%30.07 "HgN/A
10:20 AM73 °FPassing clouds.3 mph69%30.09 "HgN/A
9:50 AM73 °FPassing clouds.2 mph74%30.09 "HgN/A
9:20 AM70 °FScattered clouds.2 mph78%30.09 "HgN/A
8:50 AM66 °FScattered clouds.2 mph88%30.09 "HgN/A
8:20 AM64 °FScattered clouds.3 mph88%30.09 "Hg5 mi
7:50 AM64 °FScattered clouds.3 mph94%30.09 "Hg4 mi
7:20 AM63 °FFog.5 mph94%30.07 "Hg3 mi
6:50 AM63 °FFog.6 mph94%30.07 "Hg3 mi
6:20 AM63 °FPassing clouds.3 mph94%30.07 "Hg4 mi
5:50 AM63 °FFog.3 mph94%30.07 "Hg4 mi
5:20 AM63 °FPassing clouds.2 mph94%30.07 "Hg4 mi
4:50 AM63 °FFog.2 mph94%30.07 "Hg3 mi
4:20 AM64 °FFog.3 mph88%30.07 "Hg4 mi
3:50 AM64 °FPassing clouds.5 mph88%30.09 "Hg6 mi
3:20 AM64 °FPassing clouds.2 mph94%30.09 "Hg5 mi
2:50 AM64 °FMild.6 mph94%30.09 "Hg5 mi
2:20 AM64 °FMild.6 mph94%30.09 "Hg5 mi
1:50 AM64 °FMild.5 mph94%30.09 "Hg6 mi
1:20 AM64 °FMild.5 mph94%30.09 "HgN/A
12:50 AM66 °FMild.5 mph88%30.09 "Hg6 mi
12:20 AM66 °FMild.2 mph88%30.09 "HgN/A
11:50 PM
Sun, Aug 28
68 °FClear.1 mph88%30.09 "Hg10 mi
11:20 PM68 °FClear.6 mph88%30.09 "Hg6 mi
10:50 PM70 °FClear.1 mph83%30.09 "Hg10 mi
10:20 PM72 °FClear.2 mph78%30.07 "Hg10 mi
9:50 PM72 °FClear.3 mph78%30.07 "Hg10 mi
9:20 PM72 °FPassing clouds.3 mph78%30.07 "HgN/A
8:50 PM73 °FPassing clouds.2 mph78%30.07 "HgN/A
8:20 PM75 °FPassing clouds.2 mph69%30.04 "HgN/A
Weather by CustomWeather, © 2016

See weather overviewHow to use our weather pages